Location: ?????????
(53.2086°N, 54.0693°E)
Time: 19:31:18
(UTC+00:00)

Cosmos 1666 - Pass Details

Date: 08 December 2019
Orbit: 498 x 521 km, 82.5° (Epoch: 24 January)

Event Time Altitude Azimuth Distance (km) Brightness Sun altitude
Rises 14:18:39 0° 348° (NNW) 2,619 6.3 -18.5°
Reaches altitude 10° 14:20:48 10° 349° (N) 1,725 5.3 -18.8°
Maximum altitude 14:24:35 89° 77° (ENE) 509 2.5 -19.3°
Drops below altitude 10° 14:28:19 10° 170° (S) 1,702 5.3 -19.9°
Sets 14:30:24 0° 170° (S) 2,579 6.3 -20.2°
